Location: Newark
(58.8333°N, 23.5833°E)
Time: 21:54:45
(UTC+00:00)

Tiros 1 despin weight - Pass Details

Date: 18 November 2019
Orbit: 594 x 642 km, 48.2° (Epoch: 05 December)

Event Time Altitude Azimuth Distance (km) Brightness Sun altitude
Rises 14:01:56 0° 235° (SW) 2,833 ? -1.2°
Reaches altitude 10° 14:04:41 10° 219° (SW) 1,937 ? -1.5°
Maximum altitude 14:07:55 20° 172° (S) 1,402 ? -1.9°
Drops below altitude 10° 14:11:12 10° 125° (SE) 1,956 ? -2.2°
Sets 14:13:59 0° 108° (ESE) 2,870 ? -2.5°
